Time,TemperatureF,DewpointF,PressureIn,WindDirection,WindDirectionDegrees,WindSpeedMPH,WindSpeedGustMPH,Humidity,HourlyPrecipIn,Conditions,Clouds,dailyrainin,SoftwareType,DateUTC
2013-05-19 00:01:00,48.6,26.5,30.12,NW,315,2.5,3.4,42,0.00,,,0.00,WUHU216HW,2013-05-19 07:01:00,
2013-05-19 00:06:00,48.6,26.5,30.12,NNW,338,1.1,3.4,42,0.00,,,0.00,WUHU216HW,2013-05-19 07:06:00,
2013-05-19 00:11:00,48.2,26.1,30.12,West,270,1.1,3.6,42,0.00,,,0.00,WUHU216HW,2013-05-19 07:11:00,
2013-05-19 00:16:00,48.1,25.4,30.12,WSW,248,0.9,3.8,41,0.00,,,0.00,WUHU216HW,2013-05-19 07:16:00,
2013-05-19 00:21:00,47.9,25.2,30.12,WNW,293,1.3,3.8,41,0.00,,,0.00,WUHU216HW,2013-05-19 07:21:00,
2013-05-19 00:26:00,47.7,25.1,30.12,West,270,2.5,3.4,41,0.00,,,0.00,WUHU216HW,2013-05-19 07:26:00,
2013-05-19 00:31:00,47.3,24.8,30.12,NW,315,2.9,5.1,41,0.00,,,0.00,WUHU216HW,2013-05-19 07:31:00,
2013-05-19 00:36:00,47.2,24.0,30.12,NW,315,3.1,5.1,40,0.00,,,0.00,WUHU216HW,2013-05-19 07:36:00,
2013-05-19 00:41:00,47.0,23.9,30.12,WNW,293,1.1,4.5,40,0.00,,,0.00,WUHU216HW,2013-05-19 07:41:00,
2013-05-19 00:46:00,46.8,23.0,30.12,North,0,2.9,5.4,39,0.00,,,0.00,WUHU216HW,2013-05-19 07:46:00,
2013-05-19 00:51:00,46.6,22.9,30.12,WNW,293,1.8,5.4,39,0.00,,,0.00,WUHU216HW,2013-05-19 07:51:00,
2013-05-19 00:56:00,46.4,22.1,30.12,NW,315,1.6,4.7,38,0.00,,,0.00,WUHU216HW,2013-05-19 07:56:00,
2013-05-19 01:01:00,46.4,21.4,30.12,NNW,338,2.5,4.9,37,0.00,,,0.00,WUHU216HW,2013-05-19 08:01:00,
2013-05-19 01:06:00,46.4,21.4,30.11,WNW,293,2.5,4.9,37,0.00,,,0.00,WUHU216HW,2013-05-19 08:06:00,
2013-05-19 01:11:00,46.4,21.4,30.11,WNW,293,2.7,5.4,37,0.00,,,0.00,WUHU216HW,2013-05-19 08:11:00,
2013-05-19 01:16:00,46.4,20.7,30.11,North,0,3.4,5.4,36,0.00,,,0.00,WUHU216HW,2013-05-19 08:16:00,
2013-05-19 01:21:00,46.4,20.7,30.12,NNW,338,4.5,5.4,36,0.00,,,0.00,WUHU216HW,2013-05-19 08:21:00,
2013-05-19 01:26:00,46.3,20.6,30.11,WSW,248,3.6,4.9,36,0.00,,,0.00,WUHU216HW,2013-05-19 08:26:00,
2013-05-19 01:31:00,46.3,19.9,30.11,NW,315,1.8,5.4,35,0.00,,,0.00,WUHU216HW,2013-05-19 08:31:00,
2013-05-19 01:36:00,46.1,19.7,30.11,West,270,1.6,5.4,35,0.00,,,0.00,WUHU216HW,2013-05-19 08:36:00,
2013-05-19 01:41:00,46.1,19.7,30.11,NNW,338,1.8,5.1,35,0.00,,,0.00,WUHU216HW,2013-05-19 08:41:00,
2013-05-19 01:46:00,45.9,19.6,30.11,NW,315,2.5,5.1,35,0.00,,,0.00,WUHU216HW,2013-05-19 08:46:00,
2013-05-19 01:51:00,45.9,19.6,30.11,NW,315,3.1,5.1,35,0.00,,,0.00,WUHU216HW,2013-05-19 08:51:00,
2013-05-19 01:56:00,45.7,19.5,30.11,WNW,293,3.4,6.3,35,0.00,,,0.00,WUHU216HW,2013-05-19 08:56:00,
2013-05-19 02:01:00,45.7,19.5,30.11,West,270,2.5,6.3,35,0.00,,,0.00,WUHU216HW,2013-05-19 09:01:00,
2013-05-19 02:06:00,45.7,19.5,30.11,WNW,293,2.2,4.7,35,0.00,,,0.00,WUHU216HW,2013-05-19 09:06:00,
2013-05-19 02:11:00,45.5,19.3,30.10,North,0,1.8,4.7,35,0.00,,,0.00,WUHU216HW,2013-05-19 09:11:00,
2013-05-19 02:16:00,45.5,19.3,30.11,West,270,0.7,4.5,35,0.00,,,0.00,WUHU216HW,2013-05-19 09:16:00,
2013-05-19 02:21:00,45.4,19.1,30.11,WSW,248,2.5,4.5,35,0.00,,,0.00,WUHU216HW,2013-05-19 09:21:00,
2013-05-19 02:26:00,45.2,18.9,30.11,West,270,3.4,4.0,35,0.00,,,0.00,WUHU216HW,2013-05-19 09:26:00,
2013-05-19 02:31:00,45.0,19.4,30.10,West,270,1.8,4.0,36,0.00,,,0.00,WUHU216HW,2013-05-19 09:31:00,
2013-05-19 02:36:00,45.0,19.4,30.10,WNW,293,2.9,4.0,36,0.00,,,0.00,WUHU216HW,2013-05-19 09:36:00,
2013-05-19 02:41:00,45.0,19.4,30.10,WNW,293,1.6,4.7,36,0.00,,,0.00,WUHU216HW,2013-05-19 09:41:00,
2013-05-19 02:46:00,44.8,19.3,30.10,West,270,1.6,4.7,36,0.00,,,0.00,WUHU216HW,2013-05-19 09:46:00,
2013-05-19 02:51:00,44.6,19.1,30.10,West,270,2.2,4.0,36,0.00,,,0.00,WUHU216HW,2013-05-19 09:51:00,
2013-05-19 02:56:00,44.6,19.1,30.10,WNW,293,1.3,4.0,36,0.00,,,0.00,WUHU216HW,2013-05-19 09:56:00,
2013-05-19 03:01:00,44.6,19.1,30.10,WNW,293,2.7,4.7,36,0.00,,,0.00,WUHU216HW,2013-05-19 10:01:00,
2013-05-19 03:06:00,44.6,19.8,30.10,NNW,338,2.9,6.7,37,0.00,,,0.00,WUHU216HW,2013-05-19 10:06:00,
2013-05-19 03:11:00,44.6,19.8,30.10,WNW,293,1.3,6.7,37,0.00,,,0.00,WUHU216HW,2013-05-19 10:11:00,
2013-05-19 03:16:00,44.5,19.6,30.10,WNW,293,2.5,4.0,37,0.00,,,0.00,WUHU216HW,2013-05-19 10:16:00,
2013-05-19 03:21:00,44.3,19.4,30.10,WNW,293,1.8,4.0,37,0.00,,,0.00,WUHU216HW,2013-05-19 10:21:00,
2013-05-19 03:26:00,44.3,19.4,30.10,WSW,248,1.8,4.0,37,0.00,,,0.00,WUHU216HW,2013-05-19 10:26:00,
2013-05-19 03:31:00,44.3,19.4,30.10,WNW,293,1.8,4.0,37,0.00,,,0.00,WUHU216HW,2013-05-19 10:31:00,
2013-05-19 03:36:00,44.3,19.4,30.10,West,270,2.0,5.8,37,0.00,,,0.00,WUHU216HW,2013-05-19 10:36:00,
2013-05-19 03:41:00,44.1,19.3,30.10,West,270,1.6,5.8,37,0.00,,,0.00,WUHU216HW,2013-05-19 10:41:00,
2013-05-19 03:46:00,44.1,19.3,30.10,West,270,2.0,4.3,37,0.00,,,0.00,WUHU216HW,2013-05-19 10:46:00,
2013-05-19 03:51:00,43.9,19.8,30.10,WSW,248,0.7,4.3,38,0.00,,,0.00,WUHU216HW,2013-05-19 10:51:00,
2013-05-19 03:56:00,43.9,19.8,30.11,West,270,1.1,4.7,38,0.00,,,0.00,WUHU216HW,2013-05-19 10:56:00,
2013-05-19 04:01:00,43.7,19.6,30.11,SW,225,1.1,4.7,38,0.00,,,0.00,WUHU216HW,2013-05-19 11:01:00,
2013-05-19 04:06:00,43.6,19.4,30.11,SW,225,1.8,4.0,38,0.00,,,0.00,WUHU216HW,2013-05-19 11:06:00,
2013-05-19 04:11:00,43.6,19.4,30.11,WSW,248,1.8,3.6,38,0.00,,,0.00,WUHU216HW,2013-05-19 11:11:00,
2013-05-19 04:16:00,43.4,20.0,30.11,West,270,1.8,3.6,39,0.00,,,0.00,WUHU216HW,2013-05-19 11:16:00,
2013-05-19 04:21:00,43.2,19.8,30.11,WNW,293,1.3,3.8,39,0.00,,,0.00,WUHU216HW,2013-05-19 11:21:00,
2013-05-19 04:26:00,43.2,19.8,30.11,WSW,248,2.0,3.8,39,0.00,,,0.00,WUHU216HW,2013-05-19 11:26:00,
2013-05-19 04:31:00,43.2,19.8,30.11,WSW,248,2.7,4.0,39,0.00,,,0.00,WUHU216HW,2013-05-19 11:31:00,
2013-05-19 04:36:00,43.4,20.0,30.11,WNW,293,1.8,4.0,39,0.00,,,0.00,WUHU216HW,2013-05-19 11:36:00,
2013-05-19 04:41:00,43.4,20.6,30.11,WNW,293,1.6,3.4,40,0.00,,,0.00,WUHU216HW,2013-05-19 11:41:00,
2013-05-19 04:46:00,43.4,20.0,30.11,WNW,293,1.6,2.5,39,0.00,,,0.00,WUHU216HW,2013-05-19 11:46:00,
2013-05-19 04:51:00,43.4,20.6,30.10,WNW,293,1.8,2.5,40,0.00,,,0.00,WUHU216HW,2013-05-19 11:51:00,
2013-05-19 04:56:00,43.4,20.6,30.10,NNW,338,1.1,2.7,40,0.00,,,0.00,WUHU216HW,2013-05-19 11:56:00,
2013-05-19 05:01:00,43.2,20.5,30.10,WNW,293,1.1,2.7,40,0.00,,,0.00,WUHU216HW,2013-05-19 12:01:00,
2013-05-19 05:06:00,43.2,20.5,30.10,WNW,293,1.1,2.9,40,0.00,,,0.00,WUHU216HW,2013-05-19 12:06:00,
2013-05-19 05:11:00,43.0,20.4,30.10,West,270,1.1,2.9,40,0.00,,,0.00,WUHU216HW,2013-05-19 12:11:00,
2013-05-19 05:16:00,43.0,20.4,30.10,West,270,1.3,2.0,40,0.00,,,0.00,WUHU216HW,2013-05-19 12:16:00,
2013-05-19 05:21:00,42.8,20.2,30.10,WSW,248,0.7,2.5,40,0.00,,,0.00,WUHU216HW,2013-05-19 12:21:00,
2013-05-19 05:26:00,42.8,20.7,30.10,West,270,1.6,2.5,41,0.00,,,0.00,WUHU216HW,2013-05-19 12:26:00,
2013-05-19 05:31:00,42.8,20.7,30.10,WNW,293,0.9,2.5,41,0.00,,,0.00,WUHU216HW,2013-05-19 12:31:00,
2013-05-19 05:36:00,42.8,20.7,30.10,WNW,293,1.1,2.0,41,0.00,,,0.00,WUHU216HW,2013-05-19 12:36:00,
2013-05-19 05:41:00,42.8,21.2,30.10,WNW,293,2.2,2.7,42,0.00,,,0.00,WUHU216HW,2013-05-19 12:41:00,
2013-05-19 05:46:00,43.0,20.9,30.10,WNW,293,1.8,2.7,41,0.00,,,0.00,WUHU216HW,2013-05-19 12:46:00,
2013-05-19 05:51:00,43.2,21.1,30.11,West,270,1.6,2.2,41,0.00,,,0.00,WUHU216HW,2013-05-19 12:51:00,
2013-05-19 05:56:00,43.2,21.1,30.10,West,270,1.3,2.5,41,0.00,,,0.00,WUHU216HW,2013-05-19 12:56:00,
2013-05-19 06:01:00,43.2,21.1,30.10,West,270,1.1,2.5,41,0.00,,,0.00,WUHU216HW,2013-05-19 13:01:00,
2013-05-19 06:06:00,43.2,21.1,30.11,West,270,1.8,2.5,41,0.00,,,0.00,WUHU216HW,2013-05-19 13:06:00,
2013-05-19 06:11:00,43.2,21.1,30.11,WNW,293,1.1,2.2,41,0.00,,,0.00,WUHU216HW,2013-05-19 13:11:00,
2013-05-19 06:16:00,43.2,21.1,30.11,WNW,293,1.1,2.5,41,0.00,,,0.00,WUHU216HW,2013-05-19 13:16:00,
2013-05-19 06:21:00,43.4,21.7,30.11,West,270,0.7,2.5,42,0.00,,,0.00,WUHU216HW,2013-05-19 13:21:00,
2013-05-19 06:26:00,43.7,22.1,30.11,WSW,248,0.0,2.2,42,0.00,,,0.00,WUHU216HW,2013-05-19 13:26:00,
2013-05-19 06:31:00,44.3,23.0,30.11,SW,225,1.1,1.8,43,0.00,,,0.00,WUHU216HW,2013-05-19 13:31:00,
2013-05-19 06:36:00,45.0,23.8,30.11,SSW,203,0.0,1.8,43,0.00,,,0.00,WUHU216HW,2013-05-19 13:36:00,
2013-05-19 06:41:00,46.1,24.7,30.11,SW,225,0.9,1.8,43,0.00,,,0.00,WUHU216HW,2013-05-19 13:41:00,
2013-05-19 06:46:00,47.3,25.8,30.11,SW,225,1.3,1.6,43,0.00,,,0.00,WUHU216HW,2013-05-19 13:46:00,
2013-05-19 06:51:00,48.6,27.0,30.11,SW,225,0.4,1.8,43,0.00,,,0.00,WUHU216HW,2013-05-19 13:51:00,
2013-05-19 06:56:00,49.9,27.6,30.11,WSW,248,1.1,1.8,42,0.00,,,0.00,WUHU216HW,2013-05-19 13:56:00,
2013-05-19 07:01:00,50.9,28.5,30.11,WSW,248,0.0,1.6,42,0.00,,,0.00,WUHU216HW,2013-05-19 14:01:00,
2013-05-19 07:06:00,51.7,28.6,30.11,WSW,248,0.0,1.1,41,0.00,,,0.00,WUHU216HW,2013-05-19 14:06:00,
2013-05-19 07:11:00,52.2,28.6,30.11,WNW,293,0.0,0.0,40,0.00,,,0.00,WUHU216HW,2013-05-19 14:11:00,
2013-05-19 07:16:00,52.6,28.3,30.12,NW,315,0.0,1.1,39,0.00,,,0.00,WUHU216HW,2013-05-19 14:16:00,
2013-05-19 07:21:00,52.9,28.5,30.12,NE,45,0.0,1.1,39,0.00,,,0.00,WUHU216HW,2013-05-19 14:21:00,
2013-05-19 07:26:00,53.3,27.6,30.12,North,0,1.8,2.0,37,0.00,,,0.00,WUHU216HW,2013-05-19 14:26:00,
2013-05-19 07:31:00,53.6,27.8,30.12,North,0,1.8,3.1,37,0.00,,,0.00,WUHU216HW,2013-05-19 14:31:00,
2013-05-19 07:36:00,54.0,28.2,30.12,ENE,68,2.7,3.1,37,0.00,,,0.00,WUHU216HW,2013-05-19 14:36:00,
2013-05-19 07:41:00,54.2,28.3,30.13,ESE,113,1.6,3.1,37,0.00,,,0.00,WUHU216HW,2013-05-19 14:41:00,
2013-05-19 07:46:00,54.4,28.4,30.13,ESE,113,1.3,2.7,37,0.00,,,0.00,WUHU216HW,2013-05-19 14:46:00,
2013-05-19 07:51:00,54.7,28.1,30.13,East,90,2.7,3.8,36,0.00,,,0.00,WUHU216HW,2013-05-19 14:51:00,
2013-05-19 07:56:00,55.1,27.0,30.13,SE,135,2.2,4.0,34,0.00,,,0.00,WUHU216HW,2013-05-19 14:56:00,
2013-05-19 08:01:00,55.8,27.6,30.13,SE,135,1.8,4.0,34,0.00,,,0.00,WUHU216HW,2013-05-19 15:01:00,
2013-05-19 08:06:00,56.3,27.4,30.13,SE,135,1.8,2.9,33,0.00,,,0.00,WUHU216HW,2013-05-19 15:06:00,
2013-05-19 08:11:00,56.9,27.9,30.13,ESE,113,0.4,3.6,33,0.00,,,0.00,WUHU216HW,2013-05-19 15:11:00,
2013-05-19 08:16:00,57.6,27.8,30.13,East,90,2.9,6.5,32,0.00,,,0.00,WUHU216HW,2013-05-19 15:16:00,
2013-05-19 08:21:00,58.1,27.6,30.13,NNE,23,1.3,6.5,31,0.00,,,0.00,WUHU216HW,2013-05-19 15:21:00,
2013-05-19 08:26:00,58.5,27.3,30.13,East,90,2.5,4.0,30,0.00,,,0.00,WUHU216HW,2013-05-19 15:26:00,
2013-05-19 08:31:00,58.9,27.5,30.13,ESE,113,2.2,4.7,30,0.00,,,0.00,WUHU216HW,2013-05-19 15:31:00,
2013-05-19 08:36:00,59.2,27.9,30.13,ENE,68,1.6,4.7,30,0.00,,,0.00,WUHU216HW,2013-05-19 15:36:00,
2013-05-19 08:41:00,59.6,27.2,30.13,East,90,3.8,4.5,29,0.00,,,0.00,WUHU216HW,2013-05-19 15:41:00,
2013-05-19 08:46:00,59.9,27.5,30.13,NNW,338,1.3,5.4,29,0.00,,,0.00,WUHU216HW,2013-05-19 15:46:00,
2013-05-19 08:51:00,60.3,26.8,30.13,East,90,1.6,5.4,28,0.00,,,0.00,WUHU216HW,2013-05-19 15:51:00,
2013-05-19 08:56:00,60.7,26.2,30.13,SE,135,2.7,5.8,27,0.00,,,0.00,WUHU216HW,2013-05-19 15:56:00,
2013-05-19 09:01:00,60.8,26.3,30.13,ESE,113,4.7,6.3,27,0.00,,,0.00,WUHU216HW,2013-05-19 16:01:00,
2013-05-19 09:06:00,60.8,24.4,30.14,SE,135,2.9,7.2,25,0.00,,,0.00,WUHU216HW,2013-05-19 16:06:00,
2013-05-19 09:11:00,61.0,26.5,30.13,NNW,338,0.9,7.2,27,0.00,,,0.00,WUHU216HW,2013-05-19 16:11:00,
2013-05-19 09:16:00,61.4,24.8,30.14,East,90,1.8,5.4,25,0.00,,,0.00,WUHU216HW,2013-05-19 16:16:00,
2013-05-19 09:21:00,61.6,25.9,30.13,ENE,68,6.0,7.2,26,0.00,,,0.00,WUHU216HW,2013-05-19 16:21:00,
2013-05-19 09:26:00,61.7,25.1,30.14,SE,135,2.5,7.4,25,0.00,,,0.00,WUHU216HW,2013-05-19 16:26:00,
2013-05-19 09:31:00,61.9,25.3,30.14,SE,135,2.5,7.4,25,0.00,,,0.00,WUHU216HW,2013-05-19 16:31:00,
2013-05-19 09:36:00,62.3,25.7,30.14,East,90,2.7,8.3,25,0.00,,,0.00,WUHU216HW,2013-05-19 16:36:00,
2013-05-19 09:41:00,62.3,25.7,30.14,East,90,2.0,8.3,25,0.00,,,0.00,WUHU216HW,2013-05-19 16:41:00,
2013-05-19 09:46:00,62.5,25.7,30.14,ENE,68,4.3,6.3,25,0.00,,,0.00,WUHU216HW,2013-05-19 16:46:00,
2013-05-19 09:51:00,62.6,25.9,30.14,NE,45,4.0,6.9,25,0.00,,,0.00,WUHU216HW,2013-05-19 16:51:00,
2013-05-19 09:56:00,62.3,25.7,30.14,East,90,3.6,6.9,25,0.00,,,0.00,WUHU216HW,2013-05-19 16:56:00,
2013-05-19 10:01:00,62.1,25.5,30.13,East,90,2.5,6.5,25,0.00,,,0.00,WUHU216HW,2013-05-19 17:01:00,
2013-05-19 10:06:00,62.3,25.7,30.13,ESE,113,2.9,7.4,25,0.00,,,0.00,WUHU216HW,2013-05-19 17:06:00,
2013-05-19 10:11:00,62.3,25.7,30.14,East,90,7.6,7.6,25,0.00,,,0.00,WUHU216HW,2013-05-19 17:11:00,
2013-05-19 10:16:00,62.5,24.9,30.14,SE,135,5.8,7.6,24,0.00,,,0.00,WUHU216HW,2013-05-19 17:16:00,
2013-05-19 10:21:00,62.3,24.7,30.14,ENE,68,4.3,6.9,24,0.00,,,0.00,WUHU216HW,2013-05-19 17:21:00,
2013-05-19 10:26:00,62.1,24.5,30.14,SE,135,3.4,9.4,24,0.00,,,0.00,WUHU216HW,2013-05-19 17:26:00,
2013-05-19 10:31:00,62.3,24.7,30.13,ESE,113,5.1,9.4,24,0.00,,,0.00,WUHU216HW,2013-05-19 17:31:00,
2013-05-19 10:36:00,62.5,24.9,30.14,NW,315,1.8,6.3,24,0.00,,,0.00,WUHU216HW,2013-05-19 17:36:00,
2013-05-19 10:41:00,62.5,24.9,30.14,NNE,23,1.8,7.6,24,0.00,,,0.00,WUHU216HW,2013-05-19 17:41:00,
2013-05-19 10:46:00,62.3,24.7,30.14,NNE,23,0.9,7.6,24,0.00,,,0.00,WUHU216HW,2013-05-19 17:46:00,
2013-05-19 10:51:00,62.3,24.7,30.14,NE,45,2.5,6.7,24,0.00,,,0.00,WUHU216HW,2013-05-19 17:51:00,
2013-05-19 10:56:00,62.3,24.7,30.14,ESE,113,5.4,6.7,24,0.00,,,0.00,WUHU216HW,2013-05-19 17:56:00,
2013-05-19 11:01:00,62.5,24.9,30.14,ENE,68,3.8,6.9,24,0.00,,,0.00,WUHU216HW,2013-05-19 18:01:00,
2013-05-19 11:06:00,62.3,24.7,30.14,East,90,2.7,6.9,24,0.00,,,0.00,WUHU216HW,2013-05-19 18:06:00,
2013-05-19 11:11:00,62.3,24.7,30.14,ENE,68,2.7,9.6,24,0.00,,,0.00,WUHU216HW,2013-05-19 18:11:00,
2013-05-19 11:16:00,62.3,25.7,30.14,East,90,7.6,9.6,25,0.00,,,0.00,WUHU216HW,2013-05-19 18:16:00,
2013-05-19 11:21:00,62.3,24.7,30.14,East,90,2.9,10.5,24,0.00,,,0.00,WUHU216HW,2013-05-19 18:21:00,
2013-05-19 11:26:00,62.1,25.5,30.14,East,90,2.7,10.5,25,0.00,,,0.00,WUHU216HW,2013-05-19 18:26:00,
2013-05-19 11:31:00,62.5,25.7,30.14,ESE,113,3.1,10.5,25,0.00,,,0.00,WUHU216HW,2013-05-19 18:31:00,
2013-05-19 11:36:00,62.6,24.9,30.14,SE,135,2.7,9.2,24,0.00,,,0.00,WUHU216HW,2013-05-19 18:36:00,
2013-05-19 11:41:00,62.3,24.7,30.14,NNE,23,2.7,9.2,24,0.00,,,0.00,WUHU216HW,2013-05-19 18:41:00,
2013-05-19 11:46:00,62.5,25.7,30.14,NNE,23,3.1,8.5,25,0.00,,,0.00,WUHU216HW,2013-05-19 18:46:00,
2013-05-19 11:51:00,63.0,26.2,30.14,ESE,113,1.6,6.9,25,0.00,,,0.00,WUHU216HW,2013-05-19 18:51:00,
2013-05-19 11:56:00,63.2,25.4,30.14,North,0,2.0,8.1,24,0.00,,,0.00,WUHU216HW,2013-05-19 18:56:00,
2013-05-19 12:01:00,63.4,26.6,30.14,NW,315,2.9,8.1,25,0.00,,,0.00,WUHU216HW,2013-05-19 19:01:00,
2013-05-19 12:06:00,63.7,25.8,30.14,NE,45,3.4,8.1,24,0.00,,,0.00,WUHU216HW,2013-05-19 19:06:00,
2013-05-19 12:11:00,64.1,26.2,30.14,NNE,23,2.2,5.1,24,0.00,,,0.00,WUHU216HW,2013-05-19 19:11:00,
2013-05-19 12:16:00,64.1,26.2,30.14,North,0,2.5,7.6,24,0.00,,,0.00,WUHU216HW,2013-05-19 19:16:00,
2013-05-19 12:21:00,64.3,26.3,30.14,NE,45,2.0,7.6,24,0.00,,,0.00,WUHU216HW,2013-05-19 19:21:00,
2013-05-19 12:26:00,64.1,26.2,30.14,ESE,113,7.4,7.4,24,0.00,,,0.00,WUHU216HW,2013-05-19 19:26:00,
2013-05-19 12:31:00,64.4,26.5,30.14,ESE,113,1.6,7.8,24,0.00,,,0.00,WUHU216HW,2013-05-19 19:31:00,
2013-05-19 12:36:00,64.8,26.7,30.14,ENE,68,2.0,7.8,24,0.00,,,0.00,WUHU216HW,2013-05-19 19:36:00,
2013-05-19 12:41:00,65.2,27.1,30.13,NE,45,1.3,5.6,24,0.00,,,0.00,WUHU216HW,2013-05-19 19:41:00,
2013-05-19 12:46:00,65.7,27.6,30.13,ESE,113,3.6,5.4,24,0.00,,,0.00,WUHU216HW,2013-05-19 19:46:00,
2013-05-19 12:51:00,65.5,26.4,30.13,ENE,68,5.4,8.7,23,0.00,,,0.00,WUHU216HW,2013-05-19 19:51:00,
2013-05-19 12:56:00,65.5,26.4,30.13,SE,135,2.5,8.7,23,0.00,,,0.00,WUHU216HW,2013-05-19 19:56:00,
2013-05-19 13:01:00,65.7,27.6,30.13,ESE,113,2.9,6.3,24,0.00,,,0.00,WUHU216HW,2013-05-19 20:01:00,
2013-05-19 13:06:00,66.1,27.8,30.13,East,90,1.6,7.2,24,0.00,,,0.00,WUHU216HW,2013-05-19 20:06:00,
2013-05-19 13:11:00,66.4,27.1,30.13,ESE,113,6.5,7.2,23,0.00,,,0.00,WUHU216HW,2013-05-19 20:11:00,
2013-05-19 13:16:00,66.8,27.5,30.13,ENE,68,1.6,8.1,23,0.00,,,0.00,WUHU216HW,2013-05-19 20:16:00,
2013-05-19 13:21:00,67.1,27.7,30.13,East,90,2.2,8.1,23,0.00,,,0.00,WUHU216HW,2013-05-19 20:21:00,
2013-05-19 13:26:00,67.5,28.1,30.13,ENE,68,4.0,8.1,23,0.00,,,0.00,WUHU216HW,2013-05-19 20:26:00,
2013-05-19 13:31:00,67.7,28.3,30.13,East,90,5.4,6.3,23,0.00,,,0.00,WUHU216HW,2013-05-19 20:31:00,
2013-05-19 13:36:00,68.0,28.5,30.13,East,90,4.0,6.0,23,0.00,,,0.00,WUHU216HW,2013-05-19 20:36:00,
2013-05-19 13:41:00,67.9,28.4,30.13,SE,135,2.9,11.6,23,0.00,,,0.00,WUHU216HW,2013-05-19 20:41:00,
2013-05-19 13:46:00,67.9,27.4,30.13,ENE,68,4.0,11.6,22,0.00,,,0.00,WUHU216HW,2013-05-19 20:46:00,
2013-05-19 13:51:00,68.4,27.8,30.13,East,90,3.6,6.3,22,0.00,,,0.00,WUHU216HW,2013-05-19 20:51:00,
2013-05-19 13:56:00,68.8,27.1,30.13,ESE,113,3.4,9.2,21,0.00,,,0.00,WUHU216HW,2013-05-19 20:56:00,
2013-05-19 14:01:00,68.9,27.3,30.13,East,90,2.0,9.2,21,0.00,,,0.00,WUHU216HW,2013-05-19 21:01:00,
2013-05-19 14:06:00,68.9,27.3,30.13,ESE,113,4.7,9.6,21,0.00,,,0.00,WUHU216HW,2013-05-19 21:06:00,
2013-05-19 14:11:00,68.8,27.1,30.13,ENE,68,2.5,9.6,21,0.00,,,0.00,WUHU216HW,2013-05-19 21:11:00,
2013-05-19 14:16:00,68.6,27.0,30.13,ESE,113,7.2,8.5,21,0.00,,,0.00,WUHU216HW,2013-05-19 21:16:00,
2013-05-19 14:21:00,68.8,28.2,30.13,ESE,113,6.9,8.7,22,0.00,,,0.00,WUHU216HW,2013-05-19 21:21:00,
2013-05-19 14:26:00,69.1,27.5,30.13,NE,45,1.3,8.7,21,0.00,,,0.00,WUHU216HW,2013-05-19 21:26:00,
2013-05-19 14:31:00,69.1,27.5,30.13,East,90,2.5,7.4,21,0.00,,,0.00,WUHU216HW,2013-05-19 21:31:00,
2013-05-19 14:36:00,68.9,27.3,30.13,ESE,113,3.6,7.4,21,0.00,,,0.00,WUHU216HW,2013-05-19 21:36:00,
2013-05-19 14:41:00,69.1,27.5,30.13,NE,45,2.7,7.4,21,0.00,,,0.00,WUHU216HW,2013-05-19 21:41:00,
2013-05-19 14:46:00,69.1,27.5,30.13,NE,45,1.8,6.7,21,0.00,,,0.00,WUHU216HW,2013-05-19 21:46:00,
2013-05-19 14:51:00,69.1,27.5,30.13,East,90,2.5,6.7,21,0.00,,,0.00,WUHU216HW,2013-05-19 21:51:00,
2013-05-19 14:56:00,68.9,27.3,30.13,SE,135,1.6,6.3,21,0.00,,,0.00,WUHU216HW,2013-05-19 21:56:00,
2013-05-19 15:01:00,68.9,27.3,30.12,ESE,113,4.3,8.1,21,0.00,,,0.00,WUHU216HW,2013-05-19 22:01:00,
2013-05-19 15:06:00,68.9,24.7,30.13,East,90,4.0,9.2,19,0.00,,,0.00,WUHU216HW,2013-05-19 22:06:00,
2013-05-19 15:11:00,68.8,24.6,30.13,ESE,113,4.7,9.2,19,0.00,,,0.00,WUHU216HW,2013-05-19 22:11:00,
2013-05-19 15:16:00,68.9,24.7,30.12,East,90,5.4,7.4,19,0.00,,,0.00,WUHU216HW,2013-05-19 22:16:00,
2013-05-19 15:21:00,69.1,24.9,30.12,East,90,3.1,6.0,19,0.00,,,0.00,WUHU216HW,2013-05-19 22:21:00,
2013-05-19 15:26:00,69.1,26.5,30.12,ENE,68,2.5,6.3,20,0.00,,,0.00,WUHU216HW,2013-05-19 22:26:00,
2013-05-19 15:31:00,68.9,24.7,30.12,ESE,113,3.1,8.7,19,0.00,,,0.00,WUHU216HW,2013-05-19 22:31:00,
2013-05-19 15:36:00,68.8,26.1,30.12,ESE,113,3.4,8.7,20,0.00,,,0.00,WUHU216HW,2013-05-19 22:36:00,
2013-05-19 15:41:00,69.1,24.9,30.12,East,90,7.8,9.4,19,0.00,,,0.00,WUHU216HW,2013-05-19 22:41:00,
2013-05-19 15:46:00,69.1,24.9,30.12,East,90,5.4,9.4,19,0.00,,,0.00,WUHU216HW,2013-05-19 22:46:00,
2013-05-19 15:51:00,69.1,24.9,30.12,ENE,68,3.8,9.2,19,0.00,,,0.00,WUHU216HW,2013-05-19 22:51:00,
2013-05-19 15:56:00,69.1,26.5,30.13,ESE,113,4.0,9.2,20,0.00,,,0.00,WUHU216HW,2013-05-19 22:56:00,
2013-05-19 16:01:00,69.1,26.5,30.12,SE,135,3.1,9.2,20,0.00,,,0.00,WUHU216HW,2013-05-19 23:01:00,
2013-05-19 16:06:00,68.9,27.3,30.12,East,90,6.0,9.2,21,0.00,,,0.00,WUHU216HW,2013-05-19 23:06:00,
2013-05-19 16:11:00,68.8,27.1,30.12,ESE,113,3.4,9.2,21,0.00,,,0.00,WUHU216HW,2013-05-19 23:11:00,
2013-05-19 16:16:00,68.6,27.0,30.12,East,90,4.3,8.1,21,0.00,,,0.00,WUHU216HW,2013-05-19 23:16:00,
2013-05-19 16:21:00,68.4,26.8,30.12,ESE,113,2.9,8.1,21,0.00,,,0.00,WUHU216HW,2013-05-19 23:21:00,
2013-05-19 16:26:00,68.4,26.8,30.12,East,90,1.6,8.1,21,0.00,,,0.00,WUHU216HW,2013-05-19 23:26:00,
2013-05-19 16:31:00,68.6,27.0,30.12,East,90,1.8,7.2,21,0.00,,,0.00,WUHU216HW,2013-05-19 23:31:00,
2013-05-19 16:36:00,68.4,26.8,30.12,ENE,68,4.7,6.9,21,0.00,,,0.00,WUHU216HW,2013-05-19 23:36:00,
2013-05-19 16:41:00,68.4,26.8,30.12,SE,135,2.7,6.9,21,0.00,,,0.00,WUHU216HW,2013-05-19 23:41:00,
2013-05-19 16:46:00,68.4,26.8,30.12,NE,45,0.9,6.5,21,0.00,,,0.00,WUHU216HW,2013-05-19 23:46:00,
2013-05-19 16:51:00,68.4,26.8,30.12,North,0,1.1,9.6,21,0.00,,,0.00,WUHU216HW,2013-05-19 23:51:00,
2013-05-19 16:56:00,68.0,26.6,30.12,NE,45,3.4,9.6,21,0.00,,,0.00,WUHU216HW,2013-05-19 23:56:00,
2013-05-19 17:01:00,67.7,26.2,30.12,East,90,2.9,9.8,21,0.00,,,0.00,WUHU216HW,2013-05-20 00:01:00,
2013-05-19 17:06:00,67.7,26.2,30.12,SE,135,3.4,9.8,21,0.00,,,0.00,WUHU216HW,2013-05-20 00:06:00,
2013-05-19 17:11:00,67.3,25.9,30.12,ESE,113,3.4,7.8,21,0.00,,,0.00,WUHU216HW,2013-05-20 00:11:00,
2013-05-19 17:16:00,67.3,25.9,30.12,ESE,113,5.4,7.8,21,0.00,,,0.00,WUHU216HW,2013-05-20 00:16:00,
2013-05-19 17:21:00,67.3,25.9,30.12,ESE,113,6.5,6.5,21,0.00,,,0.00,WUHU216HW,2013-05-20 00:21:00,
2013-05-19 17:26:00,67.3,25.9,30.12,NNE,23,2.5,6.5,21,0.00,,,0.00,WUHU216HW,2013-05-20 00:26:00,
2013-05-19 17:31:00,67.1,25.7,30.12,ESE,113,4.3,6.5,21,0.00,,,0.00,WUHU216HW,2013-05-20 00:31:00,
2013-05-19 17:36:00,67.0,25.6,30.12,ESE,113,3.4,6.5,21,0.00,,,0.00,WUHU216HW,2013-05-20 00:36:00,
2013-05-19 17:41:00,66.6,25.3,30.12,ESE,113,4.7,6.3,21,0.00,,,0.00,WUHU216HW,2013-05-20 00:41:00,
2013-05-19 17:46:00,66.4,25.1,30.12,ENE,68,2.5,7.6,21,0.00,,,0.00,WUHU216HW,2013-05-20 00:46:00,
2013-05-19 17:51:00,66.2,24.9,30.12,SE,135,4.0,7.6,21,0.00,,,0.00,WUHU216HW,2013-05-20 00:51:00,
2013-05-19 17:56:00,66.2,24.9,30.12,SE,135,3.6,4.7,21,0.00,,,0.00,WUHU216HW,2013-05-20 00:56:00,
2013-05-19 18:01:00,66.1,24.9,30.11,SE,135,2.7,5.8,21,0.00,,,0.00,WUHU216HW,2013-05-20 01:01:00,
2013-05-19 18:06:00,65.9,24.7,30.11,SSE,158,1.6,5.8,21,0.00,,,0.00,WUHU216HW,2013-05-20 01:06:00,
2013-05-19 18:11:00,65.9,24.7,30.12,ESE,113,6.3,6.3,21,0.00,,,0.00,WUHU216HW,2013-05-20 01:11:00,
2013-05-19 18:16:00,65.7,24.5,30.12,ENE,68,6.3,6.3,21,0.00,,,0.00,WUHU216HW,2013-05-20 01:16:00,
2013-05-19 18:21:00,65.3,24.2,30.12,East,90,4.9,6.9,21,0.00,,,0.00,WUHU216HW,2013-05-20 01:21:00,
2013-05-19 18:26:00,65.0,24.0,30.12,ESE,113,1.6,6.9,21,0.00,,,0.00,WUHU216HW,2013-05-20 01:26:00,
2013-05-19 18:31:00,65.0,24.0,30.12,North,0,0.4,4.9,21,0.00,,,0.00,WUHU216HW,2013-05-20 01:31:00,
2013-05-19 18:36:00,65.0,24.0,30.12,NW,315,1.1,3.6,21,0.00,,,0.00,WUHU216HW,2013-05-20 01:36:00,
2013-05-19 18:41:00,65.0,24.0,30.12,NW,315,0.7,4.0,21,0.00,,,0.00,WUHU216HW,2013-05-20 01:41:00,
2013-05-19 18:46:00,65.0,24.0,30.12,NW,315,2.5,4.0,21,0.00,,,0.00,WUHU216HW,2013-05-20 01:46:00,
2013-05-19 18:51:00,65.2,24.0,30.12,North,0,3.6,4.0,21,0.00,,,0.00,WUHU216HW,2013-05-20 01:51:00,
2013-05-19 18:56:00,64.8,23.8,30.12,North,0,0.2,4.0,21,0.00,,,0.00,WUHU216HW,2013-05-20 01:56:00,
2013-05-19 19:01:00,64.4,23.5,30.12,NE,45,1.1,3.6,21,0.00,,,0.00,WUHU216HW,2013-05-20 02:01:00,
2013-05-19 19:06:00,64.1,23.2,30.12,NNE,23,2.2,4.3,21,0.00,,,0.00,WUHU216HW,2013-05-20 02:06:00,
2013-05-19 19:11:00,63.5,22.8,30.13,NNE,23,1.1,4.7,21,0.00,,,0.00,WUHU216HW,2013-05-20 02:11:00,
2013-05-19 19:16:00,63.2,22.5,30.12,NNW,338,2.7,4.7,21,0.00,,,0.00,WUHU216HW,2013-05-20 02:16:00,
2013-05-19 19:21:00,62.8,23.1,30.13,NNE,23,0.9,2.7,22,0.00,,,0.00,WUHU216HW,2013-05-20 02:21:00,
2013-05-19 19:26:00,62.6,23.1,30.13,North,0,0.4,2.7,22,0.00,,,0.00,WUHU216HW,2013-05-20 02:26:00,
2013-05-19 19:31:00,62.5,22.9,30.13,North,0,0.0,2.2,22,0.00,,,0.00,WUHU216HW,2013-05-20 02:31:00,
2013-05-19 19:36:00,62.3,22.7,30.13,WNW,293,0.7,2.0,22,0.00,,,0.00,WUHU216HW,2013-05-20 02:36:00,
2013-05-19 19:41:00,61.9,21.4,30.13,WNW,293,0.0,2.0,21,0.00,,,0.00,WUHU216HW,2013-05-20 02:41:00,
2013-05-19 19:46:00,61.4,22.0,30.13,West,270,0.4,1.3,22,0.00,,,0.00,WUHU216HW,2013-05-20 02:46:00,
2013-05-19 19:51:00,60.8,21.5,30.13,WNW,293,0.2,1.1,22,0.00,,,0.00,WUHU216HW,2013-05-20 02:51:00,
2013-05-19 19:56:00,60.3,21.1,30.13,North,0,0.4,1.1,22,0.00,,,0.00,WUHU216HW,2013-05-20 02:56:00,
2013-05-19 20:01:00,59.8,20.6,30.13,West,270,0.7,1.1,22,0.00,,,0.00,WUHU216HW,2013-05-20 03:01:00,
2013-05-19 20:06:00,59.2,20.1,30.14,WSW,248,1.3,1.3,22,0.00,,,0.00,WUHU216HW,2013-05-20 03:06:00,
2013-05-19 20:11:00,58.5,19.5,30.14,SW,225,1.1,2.2,22,0.00,,,0.00,WUHU216HW,2013-05-20 03:11:00,
2013-05-19 20:16:00,57.8,19.9,30.14,SW,225,2.5,2.5,23,0.00,,,0.00,WUHU216HW,2013-05-20 03:16:00,
2013-05-19 20:21:00,57.1,19.3,30.14,West,270,2.0,3.4,23,0.00,,,0.00,WUHU216HW,2013-05-20 03:21:00,
2013-05-19 20:26:00,56.2,19.4,30.14,SW,225,2.0,3.4,24,0.00,,,0.00,WUHU216HW,2013-05-20 03:26:00,
2013-05-19 20:31:00,55.8,19.2,30.14,WSW,248,1.6,3.1,24,0.00,,,0.00,WUHU216HW,2013-05-20 03:31:00,
2013-05-19 20:36:00,55.4,18.9,30.14,WSW,248,2.0,3.1,24,0.00,,,0.00,WUHU216HW,2013-05-20 03:36:00,
2013-05-19 20:41:00,55.1,18.5,30.14,WSW,248,2.2,3.1,24,0.00,,,0.00,WUHU216HW,2013-05-20 03:41:00,
2013-05-19 20:46:00,54.5,18.1,30.14,WSW,248,2.5,2.7,24,0.00,,,0.00,WUHU216HW,2013-05-20 03:46:00,
2013-05-19 20:51:00,54.2,18.7,30.14,WSW,248,2.5,2.7,25,0.00,,,0.00,WUHU216HW,2013-05-20 03:51:00,
2013-05-19 20:56:00,53.6,18.3,30.14,WSW,248,2.5,2.9,25,0.00,,,0.00,WUHU216HW,2013-05-20 03:56:00,
2013-05-19 21:01:00,53.3,18.0,30.14,WSW,248,2.9,2.9,25,0.00,,,0.00,WUHU216HW,2013-05-20 04:01:00,
2013-05-19 21:06:00,52.9,17.6,30.14,WSW,248,2.0,2.9,25,0.00,,,0.00,WUHU216HW,2013-05-20 04:06:00,
2013-05-19 21:11:00,52.4,19.1,30.14,WSW,248,1.8,2.7,27,0.00,,,0.00,WUHU216HW,2013-05-20 04:11:00,
2013-05-19 21:16:00,51.8,18.6,30.14,WSW,248,1.6,2.7,27,0.00,,,0.00,WUHU216HW,2013-05-20 04:16:00,
2013-05-19 21:21:00,51.5,18.3,30.14,WSW,248,1.3,2.5,27,0.00,,,0.00,WUHU216HW,2013-05-20 04:21:00,
2013-05-19 21:26:00,50.8,17.6,30.14,WNW,293,1.1,2.5,27,0.00,,,0.00,WUHU216HW,2013-05-20 04:26:00,
2013-05-19 21:31:00,50.2,18.1,30.14,West,270,1.8,2.0,28,0.00,,,0.00,WUHU216HW,2013-05-20 04:31:00,
2013-05-19 21:36:00,50.0,18.0,30.14,West,270,2.5,2.5,28,0.00,,,0.00,WUHU216HW,2013-05-20 04:36:00,
2013-05-19 21:41:00,50.0,18.9,30.15,West,270,2.9,3.1,29,0.00,,,0.00,WUHU216HW,2013-05-20 04:41:00,
2013-05-19 21:46:00,49.9,18.7,30.15,West,270,2.0,3.1,29,0.00,,,0.00,WUHU216HW,2013-05-20 04:46:00,
2013-05-19 21:51:00,49.9,19.6,30.15,West,270,1.1,2.9,30,0.00,,,0.00,WUHU216HW,2013-05-20 04:51:00,
2013-05-19 21:56:00,49.7,19.5,30.15,West,270,1.8,2.5,30,0.00,,,0.00,WUHU216HW,2013-05-20 04:56:00,
2013-05-19 22:01:00,49.3,19.9,30.15,West,270,1.3,2.5,31,0.00,,,0.00,WUHU216HW,2013-05-20 05:01:00,
2013-05-19 22:06:00,49.3,19.9,30.15,WSW,248,1.1,2.5,31,0.00,,,0.00,WUHU216HW,2013-05-20 05:06:00,
2013-05-19 22:11:00,49.1,19.7,30.15,WSW,248,2.2,2.2,31,0.00,,,0.00,WUHU216HW,2013-05-20 05:11:00,
2013-05-19 22:16:00,49.0,20.3,30.15,WSW,248,1.8,2.2,32,0.00,,,0.00,WUHU216HW,2013-05-20 05:16:00,
2013-05-19 22:21:00,48.6,20.0,30.15,WSW,248,2.5,2.9,32,0.00,,,0.00,WUHU216HW,2013-05-20 05:21:00,
2013-05-19 22:26:00,48.6,20.0,30.15,WSW,248,2.2,2.9,32,0.00,,,0.00,WUHU216HW,2013-05-20 05:26:00,
2013-05-19 22:31:00,48.4,20.5,30.15,WSW,248,1.6,2.9,33,0.00,,,0.00,WUHU216HW,2013-05-20 05:31:00,
2013-05-19 22:36:00,48.2,20.3,30.15,WSW,248,1.3,2.5,33,0.00,,,0.00,WUHU216HW,2013-05-20 05:36:00,
2013-05-19 22:41:00,48.1,20.2,30.15,WSW,248,1.3,2.2,33,0.00,,,0.00,WUHU216HW,2013-05-20 05:41:00,
2013-05-19 22:46:00,47.7,19.9,30.15,WSW,248,1.1,2.0,33,0.00,,,0.00,WUHU216HW,2013-05-20 05:46:00,
2013-05-19 22:51:00,47.5,20.3,30.15,WSW,248,1.8,2.2,34,0.00,,,0.00,WUHU216HW,2013-05-20 05:51:00,
2013-05-19 22:56:00,47.2,20.1,30.15,WSW,248,2.0,2.5,34,0.00,,,0.00,WUHU216HW,2013-05-20 05:56:00,
2013-05-19 23:01:00,47.0,19.9,30.15,WSW,248,2.0,2.5,34,0.00,,,0.00,WUHU216HW,2013-05-20 06:01:00,
2013-05-19 23:06:00,46.8,19.1,30.15,WSW,248,2.2,2.7,33,0.00,,,0.00,WUHU216HW,2013-05-20 06:06:00,
2013-05-19 23:11:00,46.4,19.5,30.15,WSW,248,1.3,2.7,34,0.00,,,0.00,WUHU216HW,2013-05-20 06:11:00,
2013-05-19 23:16:00,46.1,19.7,30.15,WSW,248,2.5,2.5,35,0.00,,,0.00,WUHU216HW,2013-05-20 06:16:00,
2013-05-19 23:21:00,45.9,19.6,30.15,WSW,248,2.5,2.5,35,0.00,,,0.00,WUHU216HW,2013-05-20 06:21:00,
2013-05-19 23:26:00,45.7,20.1,30.15,WSW,248,2.5,2.9,36,0.00,,,0.00,WUHU216HW,2013-05-20 06:26:00,
2013-05-19 23:31:00,45.7,20.1,30.15,WSW,248,2.2,2.9,36,0.00,,,0.00,WUHU216HW,2013-05-20 06:31:00,
2013-05-19 23:36:00,45.5,19.9,30.15,WSW,248,2.5,2.5,36,0.00,,,0.00,WUHU216HW,2013-05-20 06:36:00,
2013-05-19 23:41:00,45.4,19.8,30.15,WSW,248,1.8,2.5,36,0.00,,,0.00,WUHU216HW,2013-05-20 06:41:00,
2013-05-19 23:46:00,45.2,19.6,30.15,WSW,248,2.2,2.5,36,0.00,,,0.00,WUHU216HW,2013-05-20 06:46:00,
2013-05-19 23:51:00,45.0,19.4,30.15,West,270,2.5,2.5,36,0.00,,,0.00,WUHU216HW,2013-05-20 06:51:00,
2013-05-19 23:56:00,44.8,19.3,30.15,WSW,248,2.5,3.4,36,0.00,,,0.00,WUHU216HW,2013-05-20 06:56:00,